TimeEST,TemperatureF,Dew PointF,Humidity,Sea Level PressureIn,VisibilityMPH,Wind Direction,Wind SpeedMPH,Gust SpeedMPH,PrecipitationIn,Events,Conditions,WindDirDegrees,DateUTC
12:15 AM,33.8,28.4,81,30.29,10.0,West,3.5,-,N/A,,Clear,260,2013-01-05 05:15:00
12:35 AM,33.8,28.4,81,30.29,10.0,West,3.5,-,N/A,,Clear,260,2013-01-05 05:35:00
12:55 AM,35.6,26.6,70,30.28,10.0,Calm,Calm,-,N/A,,Clear,0,2013-01-05 05:55:00
1:15 AM,35.6,26.6,70,30.29,10.0,West,3.5,-,N/A,,Clear,270,2013-01-05 06:15:00
1:35 AM,33.8,26.6,75,30.30,10.0,Calm,Calm,-,N/A,,Clear,0,2013-01-05 06:35:00
1:55 AM,30.2,24.8,80,30.30,10.0,Calm,Calm,-,N/A,,Clear,0,2013-01-05 06:55:00
2:15 AM,30.2,26.6,86,30.30,10.0,Calm,Calm,-,N/A,,Clear,0,2013-01-05 07:15:00
2:35 AM,28.4,26.6,93,30.31,10.0,Calm,Calm,-,N/A,,Clear,0,2013-01-05 07:35:00
2:55 AM,26.6,24.8,93,30.31,10.0,Calm,Calm,-,N/A,,Clear,0,2013-01-05 07:55:00
3:15 AM,28.4,26.6,93,30.31,10.0,Calm,Calm,-,N/A,,Clear,0,2013-01-05 08:15:00
3:35 AM,26.6,24.8,93,30.31,10.0,Calm,Calm,-,N/A,,Clear,0,2013-01-05 08:35:00
3:55 AM,26.6,24.8,93,30.31,10.0,Calm,Calm,-,N/A,,Clear,0,2013-01-05 08:55:00
4:15 AM,26.6,24.8,93,30.31,10.0,Calm,Calm,-,N/A,,Clear,0,2013-01-05 09:15:00
4:35 AM,28.4,23.0,80,30.31,10.0,Calm,Calm,-,N/A,,Clear,0,2013-01-05 09:35:00
4:55 AM,28.4,24.8,86,30.31,10.0,Calm,Calm,-,N/A,,Clear,0,2013-01-05 09:55:00
5:15 AM,26.6,23.0,86,30.32,10.0,Calm,Calm,-,N/A,,Clear,0,2013-01-05 10:15:00
5:35 AM,26.6,23.0,86,30.32,10.0,Calm,Calm,-,N/A,,Clear,0,2013-01-05 10:35:00
5:55 AM,26.6,23.0,86,30.33,10.0,Calm,Calm,-,N/A,,Clear,0,2013-01-05 10:55:00
6:15 AM,26.6,21.2,80,30.34,10.0,Calm,Calm,-,N/A,,Clear,0,2013-01-05 11:15:00
6:35 AM,26.6,24.8,93,30.35,10.0,Calm,Calm,-,N/A,,Clear,0,2013-01-05 11:35:00
6:55 AM,26.6,21.2,80,30.35,10.0,Calm,Calm,-,N/A,,Clear,0,2013-01-05 11:55:00
7:15 AM,24.8,23.0,93,30.36,10.0,Calm,Calm,-,N/A,,Clear,0,2013-01-05 12:15:00
7:35 AM,26.6,23.0,86,30.37,10.0,Calm,Calm,-,N/A,,Clear,0,2013-01-05 12:35:00
7:55 AM,26.6,24.8,93,30.38,10.0,Calm,Calm,-,N/A,,Clear,0,2013-01-05 12:55:00
8:15 AM,28.4,26.6,93,30.37,10.0,Calm,Calm,-,N/A,,Clear,0,2013-01-05 13:15:00
8:35 AM,32.0,28.4,87,30.37,10.0,Calm,Calm,-,N/A,,Clear,0,2013-01-05 13:35:00
8:55 AM,35.6,28.4,75,30.39,10.0,Calm,Calm,-,N/A,,Clear,0,2013-01-05 13:55:00
9:15 AM,37.4,26.6,65,30.40,10.0,Calm,Calm,-,N/A,,Clear,0,2013-01-05 14:15:00
9:35 AM,37.4,26.6,65,30.40,10.0,Calm,Calm,-,N/A,,Clear,0,2013-01-05 14:35:00
9:55 AM,39.2,26.6,61,30.40,10.0,North,5.8,-,N/A,,Clear,350,2013-01-05 14:55:00
10:15 AM,41.0,24.8,53,30.41,10.0,North,6.9,-,N/A,,Clear,10,2013-01-05 15:15:00
10:55 AM,42.8,24.8,49,30.39,10.0,North,4.6,-,N/A,,Clear,350,2013-01-05 15:55:00
11:15 AM,44.6,24.8,46,30.39,10.0,ENE,5.8,-,N/A,,Clear,60,2013-01-05 16:15:00
11:55 AM,46.4,24.8,43,30.37,10.0,Calm,Calm,-,N/A,,Clear,0,2013-01-05 16:55:00
12:15 PM,46.4,24.8,43,30.36,10.0,NW,4.6,-,N/A,,Clear,320,2013-01-05 17:15:00
12:55 PM,48.2,24.8,40,30.35,10.0,NNW,4.6,-,N/A,,Clear,330,2013-01-05 17:55:00
1:15 PM,48.2,24.8,40,30.34,10.0,Calm,Calm,-,N/A,,Clear,0,2013-01-05 18:15:00
1:35 PM,50.0,24.8,37,30.33,10.0,West,3.5,-,N/A,,Clear,270,2013-01-05 18:35:00
1:55 PM,51.8,24.8,35,30.32,10.0,SE,3.5,-,N/A,,Clear,140,2013-01-05 18:55:00
2:15 PM,50.0,23.0,35,30.32,10.0,Calm,Calm,-,N/A,,Clear,0,2013-01-05 19:15:00
2:35 PM,51.8,26.6,38,30.31,10.0,SSE,4.6,-,N/A,,Clear,150,2013-01-05 19:35:00
2:55 PM,51.8,26.6,38,30.32,10.0,Calm,Calm,-,N/A,,Clear,0,2013-01-05 19:55:00
3:15 PM,51.8,26.6,38,30.32,10.0,Calm,Calm,-,N/A,,Clear,0,2013-01-05 20:15:00
3:35 PM,51.8,26.6,38,30.31,10.0,Calm,Calm,-,N/A,,Clear,0,2013-01-05 20:35:00
3:55 PM,51.8,26.6,38,30.31,10.0,East,3.5,-,N/A,,Clear,100,2013-01-05 20:55:00
4:15 PM,50.0,26.6,40,30.31,10.0,Calm,Calm,-,N/A,,Clear,0,2013-01-05 21:15:00
4:35 PM,50.0,26.6,40,30.32,10.0,Calm,Calm,-,N/A,,Clear,0,2013-01-05 21:35:00
4:55 PM,46.4,30.2,53,30.33,10.0,Calm,Calm,-,N/A,,Clear,0,2013-01-05 21:55:00
5:15 PM,44.6,32.0,61,30.33,10.0,Calm,Calm,-,N/A,,Clear,0,2013-01-05 22:15:00
6:15 PM,39.2,32.0,75,30.34,10.0,South,4.6,-,N/A,,Clear,190,2013-01-05 23:15:00
6:35 PM,39.2,32.0,75,30.35,10.0,South,4.6,-,N/A,,Clear,180,2013-01-05 23:35:00
6:55 PM,39.2,33.8,81,30.35,10.0,SSW,3.5,-,N/A,,Clear,200,2013-01-05 23:55:00
7:15 PM,37.4,32.0,81,30.34,10.0,Calm,Calm,-,N/A,,Clear,0,2013-01-06 00:15:00
7:35 PM,37.4,32.0,81,30.34,10.0,Calm,Calm,-,N/A,,Clear,0,2013-01-06 00:35:00
7:55 PM,37.4,32.0,81,30.33,10.0,Calm,Calm,-,N/A,,Clear,0,2013-01-06 00:55:00
8:15 PM,37.4,32.0,81,30.33,10.0,Calm,Calm,-,N/A,,Clear,0,2013-01-06 01:15:00
8:35 PM,37.4,32.0,81,30.33,10.0,Calm,Calm,-,N/A,,Clear,0,2013-01-06 01:35:00
8:55 PM,35.6,32.0,87,30.33,10.0,Calm,Calm,-,N/A,,Clear,0,2013-01-06 01:55:00
9:15 PM,35.6,32.0,87,30.32,10.0,Calm,Calm,-,N/A,,Clear,0,2013-01-06 02:15:00
9:35 PM,35.6,32.0,87,30.31,10.0,SSW,3.5,-,N/A,,Clear,210,2013-01-06 02:35:00
9:55 PM,37.4,33.8,87,30.31,10.0,SSW,3.5,-,N/A,,Clear,200,2013-01-06 02:55:00
10:15 PM,37.4,33.8,87,30.32,10.0,SSW,4.6,-,N/A,,Clear,200,2013-01-06 03:15:00
10:35 PM,37.4,33.8,87,30.31,10.0,SW,3.5,-,N/A,,Clear,220,2013-01-06 03:35:00
10:55 PM,37.4,33.8,87,30.30,10.0,Calm,Calm,-,N/A,,Clear,0,2013-01-06 03:55:00
11:15 PM,37.4,33.8,87,30.31,10.0,Calm,Calm,-,N/A,,Clear,0,2013-01-06 04:15:00
11:35 PM,39.2,33.8,81,30.31,10.0,WSW,4.6,-,N/A,,Clear,240,2013-01-06 04:35:00
11:55 PM,39.2,33.8,81,30.31,10.0,Calm,Calm,-,N/A,,Partly Cloudy,0,2013-01-06 04:55:00